FW8640 Weather Reports


time (UTC)temp
C
wind
direction
speed
KPH
gust
KPH
rain 1hr
cm
rain 24hr
cm
rain mn
cm
humidity
%
barometer
mb
20260508013020 16 0.0 0.0 0.00 0.00 0.00 81 1017.1
20260508012018 16 0.0 0.0 0.00 0.00 0.00 81 1017.2
20260508011017 16 0.0 0.0 0.00 0.00 0.00 80 1017.4
20260508010018 16 0.0 0.0 0.00 0.00 0.00 80 1017.5
20260508005017 16 0.0 0.0 0.00 0.00 0.00 80 1017.5
20260508004019 16 0.0 0.0 0.00 0.00 0.00 80 1017.6
20260508003019 16 0.0 0.0 0.00 0.00 0.00 80 1017.7
20260508002018 16 0.0 0.0 0.00 0.00 0.00 80 1017.8
20260508001017 16 0.0 0.0 0.00 0.00 0.00 80 1017.8
20260508000041 16 0.0 0.0 0.00 0.00 0.00 79 1017.9
20260507235018 16 0.0 0.0 0.00 0.00 0.00 79 1017.9
20260507234018 16 0.0 0.0 0.00 0.00 0.00 79 1017.9
20260507233017 16 0.0 0.0 0.00 0.00 0.00 79 1017.9
20260507232040 16 0.0 0.0 0.00 0.00 0.00 79 1018.0
20260507231019 16 0.0 0.0 0.00 0.00 0.00 79 1018.2
20260507230017 16 0.0 0.0 0.00 0.00 0.00 78 1018.3
20260507225017 17 0.0 0.0 0.00 0.00 0.00 78 1018.3
20260507224017 17 0.0 0.0 0.00 0.00 0.00 78 1018.5
20260507223017 17 0.0 0.0 0.00 0.00 0.00 78 1018.7
20260507222017 17 0.0 0.0 0.00 0.00 0.00 78 1018.7
20260507221019 17 0.0 0.0 0.00 0.00 0.00 78 1018.5
20260507220017 17 0.0 0.0 0.00 0.00 0.00 78 1018.5
20260507215017 17 0.0 0.0 0.00 0.00 0.00 78 1018.6
20260507214019 17 0.0 0.0 0.00 0.00 0.00 77 1018.5
20260507213017 17 0.0 0.0 0.00 0.00 0.00 77 1018.6
20260507212018 17 0.0 0.0 0.00 0.00 0.00 77 1018.5
20260507211019 17 0.0 0.0 0.00 0.00 0.00 76 1018.5
20260507210018 17 0.0 0.0 0.00 0.00 0.00 76 1018.5
20260507205018 17 0.0 0.0 0.00 0.00 0.00 76 1018.5
20260507204020 17 0.0 0.0 0.00 0.00 0.00 75 1018.6
20260507203020 17 0.0 0.0 0.00 0.00 0.00 75 1018.5
20260507202020 17 0.0 0.0 0.00 0.00 0.00 75 1018.4
20260507201018 17 0.0 0.0 0.00 0.00 0.00 74 1018.4
20260507200018 17 0.0 0.0 0.00 0.00 0.00 74 1018.4
20260507195020 17 0.0 0.0 0.00 0.00 0.00 74 1018.5
20260507194020 18 0.0 0.0 0.00 0.00 0.00 74 1018.6
20260507193020 18 0.0 0.0 0.00 0.00 0.00 73 1018.5
20260507192018 18 0.0 0.0 0.00 0.00 0.00 73 1018.5
20260507191018 18 0.0 0.0 0.00 0.00 0.00 72 1018.6
20260507190018 18 0.0 0.0 0.00 0.00 0.00 72 1018.5
20260507185018 18 0.0 0.0 0.00 0.00 0.00 72 1018.5
20260507184018 18 0.0 0.0 0.00 0.00 0.00 71 1018.4
20260507183018 19 0.0 0.0 0.00 0.00 0.00 70 1018.5
20260507182018 19 0.0 0.0 0.00 0.00 0.00 70 1018.4
20260507181020 19 0.0 0.0 0.00 0.00 0.00 69 1018.3
20260507180018 20 0.0 0.0 0.00 0.00 0.00 68 1018.1
20260507175041 20 0.0 0.0 0.00 0.00 0.00 67 1018.3
20260507174021 20 0.0 1.6 0.00 0.00 0.00 68 1018.3
20260507173018 20 0.0 0.0 0.00 0.00 0.00 67 1017.7
20260507172041 20 0.0 0.0 0.00 0.00 0.00 67 1017.5
20260507171017 20 0.0 0.0 0.00 0.00 0.00 66 1017.8
20260507170039 20 0.0 0.0 0.00 0.00 0.00 65 1018.1
20260507165041 20 0.0 0.0 0.00 0.00 0.00 66 1018.3
20260507164018 20 0.0 0.0 0.00 0.00 0.00 65 1018.4
20260507163018 20 0.0 0.0 0.00 0.00 0.00 65 1018.3
20260507162018 20 0.0 1.6 0.00 0.00 0.00 64 1018.4
20260507161102 20 225 1.6 8.0 0.00 0.00 0.00 63 1018.5
20260507160019 20 0.0 0.0 0.00 0.00 0.00 63 1018.2
20260507155017 20 0.0 0.0 0.00 0.00 0.00 64 1018.2
20260507154104 20 0.0 0.0 0.00 0.00 0.00 66 1018.3
20260507153018 20 0.0 0.0 0.00 0.00 0.00 67 1018.5
20260507152019 20 0.0 1.6 0.00 0.00 0.00 66 1018.6
20260507151019 21 0.0 4.8 0.00 0.00 0.00 64 1018.5
20260507150019 21 0.0 4.8 0.00 0.00 0.00 60 1018.4
20260507145102 21 0.0 0.0 0.00 0.00 0.00 59 1018.4
20260507144019 21 0.0 4.8 0.00 0.00 0.00 60 1018.6
20260507143018 21 0.0 3.2 0.00 0.00 0.00 59 1018.5
20260507142019 22 225 3.2 8.0 0.00 0.00 0.00 58 1018.5
20260507141018 22 0.0 6.4 0.00 0.00 0.00 58 1018.3
20260507140019 22 225 1.6 6.4 0.00 0.00 0.00 59 1018.2
20260507135018 21 0.0 0.0 0.00 0.00 0.00 61 1018.2
20260507134019 21 0.0 0.0 0.00 0.00 0.00 64 1018.2
20260507133017 21 0.0 0.0 0.00 0.00 0.00 67 1018.3
20260507132017 20 0.0 0.0 0.00 0.00 0.00 67 1018.4
20260507131020 21 225 1.6 4.8 0.00 0.00 0.00 68 1018.6
20260507130017 21 225 1.6 8.0 0.00 0.00 0.00 67 1018.6
20260507125019 21 0.0 4.8 0.00 0.00 0.00 64 1018.6
20260507124017 21 0.0 0.0 0.00 0.00 0.00 66 1018.5
20260507123017 20 0.0 0.0 0.00 0.00 0.00 67 1019.0
20260507122040 20 0.0 3.2 0.00 0.00 0.00 69 1019.5
20260507121019 20 0.0 0.0 0.00 0.00 0.00 70 1019.5
20260507120017 20 0.0 3.2 0.00 0.00 0.00 70 1019.6
20260507115017 20 0.0 3.2 0.00 0.00 0.00 70 1019.8
20260507114019 20 0.0 3.2 0.00 0.00 0.00 71 1020.0
20260507113018 20 0.0 0.0 0.00 0.00 0.00 72 1020.1
20260507112042 20 0.0 0.0 0.00 0.00 0.00 73 1020.2
20260507111020 20 0.0 0.0 0.00 0.00 0.00 72 1020.3
20260507110019 20 0.0 0.0 0.00 0.00 0.00 70 1020.1
20260507105044 20 0.0 0.0 0.00 0.00 0.00 70 1020.1
20260507104019 20 0.0 0.0 0.00 0.00 0.00 69 1020.1
20260507103020 20 0.0 0.0 0.00 0.00 0.00 68 1020.3
20260507102019 20 0.0 0.0 0.00 0.00 0.00 67 1020.3
20260507101019 20 0.0 1.6 0.00 0.00 0.00 67 1020.3
20260507100019 20 0.0 3.2 0.00 0.00 0.00 68 1020.1
20260507095020 20 225 1.6 6.4 0.00 0.00 0.00 67 1020.1
20260507094040 20 225 1.6 8.0 0.00 0.00 0.00 64 1020.0
20260507093019 20 0.0 0.0 0.00 0.00 0.00 63 1019.8
20260507092021 20 0.0 0.0 0.00 0.00 0.00 65 1019.5
20260507091021 20 0.0 0.0 0.00 0.00 0.00 66 1019.3
20260507090044 20 0.0 0.0 0.00 0.00 0.00 67 1019.3
20260507085021 20 0.0 0.0 0.00 0.00 0.00 68 1019.3
20260507084019 20 0.0 0.0 0.00 0.00 0.00 69 1019.1
20260507083019 19 0.0 0.0 0.00 0.00 0.00 70 1019.1
20260507082018 19 0.0 0.0 0.00 0.00 0.00 70 1019.0
20260507081019 19 0.0 0.0 0.00 0.00 0.00 70 1018.9
20260507080042 20 0.0 0.0 0.00 0.00 0.00 69 1018.8
20260507075019 20 0.0 0.0 0.00 0.00 0.00 69 1018.5
20260507074042 20 0.0 0.0 0.00 0.00 0.00 69 1018.4
20260507073042 20 0.0 0.0 0.00 0.00 0.00 70 1018.2
20260507072019 20 0.0 0.0 0.00 0.00 0.00 70 1018.2
20260507071020 19 0.0 0.0 0.00 0.00 0.00 71 1018.2
20260507070019 19 0.0 0.0 0.00 0.00 0.00 73 1018.1
20260507065022 18 0.0 0.0 0.00 0.00 0.00 73 1018.3
20260507064040 18 0.0 0.0 0.00 0.00 0.00 74 1018.4
20260507063018 18 0.0 0.0 0.00 0.00 0.00 74 1018.3
20260507062018 18 0.0 0.0 0.00 0.00 0.00 75 1018.4
20260507061019 18 0.0 0.0 0.00 0.00 0.00 75 1018.2
20260507060018 18 0.0 6.4 0.00 0.00 0.00 74 1018.1
20260507055021 18 0.0 0.0 0.00 0.00 0.00 75 1017.9
20260507054018 18 0.0 0.0 0.00 0.00 0.00 75 1017.9
20260507053019 18 0.0 0.0 0.00 0.00 0.00 77 1017.9
20260507052018 18 0.0 0.0 0.00 0.00 0.00 79 1017.7
20260507051042 17 0.0 0.0 0.00 0.00 0.00 80 1017.7
20260507050021 17 0.0 0.0 0.00 0.00 0.00 81 1017.7
20260507045019 16 0.0 0.0 0.00 0.00 0.00 82 1017.6
20260507044022 16 0.0 0.0 0.00 0.00 0.00 81 1017.6
20260507043019 15 0.0 0.0 0.00 0.00 0.00 81 1017.6
20260507042020 15 0.0 0.0 0.00 0.00 0.00 81 1017.6
20260507041041 15 0.0 0.0 0.00 0.00 0.00 81 1017.5
20260507040018 15 0.0 0.0 0.00 0.00 0.00 80 1017.5
20260507035103 15 0.0 0.0 0.00 0.00 0.00 79 1017.4
20260507034018 15 0.0 0.0 0.00 0.00 0.00 79 1017.3
20260507033020 15 0.0 0.0 0.00 0.00 0.00 79 1017.2
20260507032019 15 0.0 0.0 0.00 0.00 0.00 79 1017.2
20260507031040 15 0.0 0.0 0.00 0.00 0.00 79 1017.2
20260507030019 15 0.0 0.0 0.00 0.00 0.00 78 1017.1
20260507025018 15 0.0 0.0 0.00 0.00 0.00 79 1017.0
20260507024019 15 0.0 0.0 0.00 0.00 0.00 79 1016.9
20260507023020 15 0.0 0.0 0.00 0.00 0.00 79 1016.7
20260507022020 15 0.0 0.0 0.00 0.00 0.00 79 1016.5
20260507021019 15 0.0 0.0 0.00 0.00 0.00 79 1016.7
20260507020020 15 0.0 0.0 0.00 0.00 0.00 79 1016.7
20260507015020 15 0.0 0.0 0.00 0.00 0.00 78 1016.7
20260507014018 15 0.0 0.0 0.00 0.00 0.00 78 1016.6